Location: Arrington
(35.8681°N, 86.7092°W)
Time: 00:26:56
(UTC+00:00)

Cosmos 1420 Rocket - Pass Details

Date: 23 November 2019
Orbit: 755 x 780 km, 74.0° (Epoch: 05 December)

Event Time Altitude Azimuth Distance (km) Brightness Sun altitude
Rises 00:04:36 0° 345° (NNW) 3,215 7.3 -17.9°
Reaches altitude 10° 00:07:00 10° 349° (N) 2,286 6.4 -18.4°
Maximum altitude 00:12:08 64° 71° (ENE) 839 3.9 -19.4°
Drops below altitude 10° 00:17:15 10° 152° (SSE) 2,278 6.3 -20.4°
Sets 00:19:38 0° 156° (SSE) 3,202 7.1 -20.9°
